Hourly Data Report for October 22, 2015

All times are specified in Local Standard Time (LST). Add 1 hour to adjust for Daylight Saving Time where and when it is observed.

KUGLUKTUK A
NUNAVUT

67°49'00.000" N
115°08'38.000" W
22.60 m
2300903
71938
YCO

Download Data

Hourly Data (October 2015)
Hourly Data Report for October 22, 2015
Temp Definition
°C
Dew Point Temp Definition
°C
Rel Hum Definition
%
Wind Dir Definition
10's deg

Wind Spd Definition
km/h
Visibility Definition
km
Stn Press Definition
kPa
Hmdx Definition


Wind Chill Definition


Weather Definition


TIME
00:00 Legend Double Dagger -3.5 -6.1 82 9 8 24.1 100.89   -7 LegendNANA
01:00 Legend Double Dagger -3.6 -5.3 88 13 8 6.4 100.84   -7 Snow
02:00 Legend Double Dagger -3.5 -4.1 96 11 10 3.6 100.80   -7 Snow
03:00 Legend Double Dagger -3.5 -4.2 95 11 14 4.8 100.75   -9 Snow
04:00 Legend Double Dagger -3.4 -4.1 95 10 14 9.7 100.69   -8 Snow
05:00 Legend Double Dagger -3.5 -4.2 95 9 14 4.8 100.67   -9 Snow
06:00 Legend Double Dagger -3.5 -4.2 95 10 16 3.2 100.65   -9 Snow
07:00 Legend Double Dagger -3.5 -4.1 96 11 11 3.2 100.64   -8 Snow
08:00 Legend Double Dagger -3.7 -4.3 96 10 8 4.8 100.62   -7 Snow
09:00 Legend Double Dagger -3.7 -4.3 96 9 5 4.8 100.59   -6 Snow
10:00 Legend Double Dagger -3.4 -4.1 95 4 4 6.4 100.55   -5 Snow
11:00 Legend Double Dagger -2.2 -3.0 94 4 14 8.1 100.52   -7 Snow
12:00 Legend Double Dagger -2.2 -3.2 93 5 16 6.4 100.50   -7 Snow
13:00 Legend Double Dagger -2.5 -3.8 91 9 15 8.1 100.53   -7 Snow
14:00 Legend Double Dagger -2.4 -3.8 90 5 18 8.1 100.55   -8 Snow
15:00 Legend Double Dagger -2.4 -3.8 90 4 21 8.1 100.57   -8 Snow
16:00 Legend Double Dagger -2.8 -4.2 90 5 15 9.7 100.61   -8 Snow
17:00 Legend Double Dagger -2.9 -4.0 92 5 19 9.7 100.64   -9 Snow
18:00 Legend Double Dagger -3.4 -4.4 93 1 31 6.4 100.71   -11 Snow,Blowing Snow
19:00 Legend Double Dagger -4.2 -5.2 93 1 29 3.2 100.78   -12 Snow,Blowing Snow
20:00 Legend Double Dagger -5.1 -6.4 91 36 31 4.0 100.81   -13 Snow,Blowing Snow
21:00 Legend Double Dagger -5.8 -7.2 90 36 31 3.2 100.88   -14 Snow,Blowing Snow
22:00 Legend Double Dagger -6.2 -7.6 90 1 29 6.4 100.94   -14 Snow
23:00 Legend Double Dagger -6.4 -7.9 89 1 29 6.4 101.00   -15 Snow

Notes on Data Quality.

Legend

  • E = Estimated
  • M = Missing
  • NA = Not Available
  • ‡ = Partner data that is not subject to review by the National Climate Archives
Date modified: